Voltar ao catálogo

IUS DEB

AtivoHEO
NORAD 43365·DEBRIS·🇺🇸 United States

Lançado Jul 23, 1999 de Cape Canaveral Space Force Station

Loading…

Próximas Passagens (próximas 24 horas)

TLE

ObsoletoSource: Space-Track

Época: Aug 15, 2026, 03:16 UTC

1 43365U 99040N   26227.13652096  .00000017  00000-0  00000-0 0  9992
2 43365  27.6632 161.1440 2805587 175.4762 187.7810  7.21616467357235

Acompanhe IUS DEB em tempo real com AllMySat

Download on the App Store